Location: Northern Prairie Star Party
(53.2167°N, 112.5333°W)
Time: 22:02:03
(UTC-06:00)

Daily predictions for brighter satellites

Satellite Brightness Start Highest point End
(mag) Time Altitude Azimuth Time Altitude Azimuth Time Altitude Azimuth
Meteor 1-27 Rocket 4.4 22:05:30 10° NNW 22:10:59 57° W 22:16:22 10° S
Okean 3 3.7 22:06:55 10° NNW 22:11:14 74° W 22:15:28 10° S
NOSS 3-1 (C) 4.4 22:04:50 10° NW 22:11:51 60° NNE 22:19:44 10° ESE
SL-8 R/B 4.1 22:07:36 10° WSW 22:12:11 44° S 22:16:46 10° E
ERS-1 Rocket 4.2 22:07:37 10° S 22:12:24 43° W 22:17:14 10° NNW
Cosmos 1140 Rocket 3.8 22:07:48 10° NNW 22:12:55 66° WSW 22:18:01 10° SSE
Gbstr 26 Del rocket 3.5 22:07:41 10° W 22:13:17 67° SSW 22:17:48 10° ESE
MetOp-B 4.2 22:08:48 10° SSE 22:14:11 89° WSW 22:19:35 10° NNW
CZ-4C R/B 4.3 22:17:35 10° SE 22:21:18 37° ENE 22:25:13 10° N
CZ-4B R/B 4.0 22:19:25 10° NNE 22:24:05 39° E 22:28:37 10° SSE
Landsat 7 4.3 22:19:53 10° SE 22:24:26 47° ENE 22:29:00 10° N
Cosmos 1242 Rocket 3.0 22:23:46 10° NNW 22:27:24 64° W 22:31:03 10° S
H-2A R/B 2.6 22:23:15 10° SE 22:28:21 47° ENE 22:33:22 10° N
Cosmos 1452 Rocket 3.6 22:23:32 10° SSW 22:28:49 90° WNW 22:34:09 10° NNE
Okean 2 Rocket 3.1 22:25:46 10° S 22:30:09 73° E 22:34:34 10° NNE
ISS -2.3 22:29:26 10° SSW 22:32:12 25° SSE 22:34:58 10° E
SL-08 RB Rocket 3.8 22:28:04 10° SSE 22:32:40 71° ENE 22:37:20 10° N
Cosmos 1184 Rocket 2.9 22:29:45 10° SSW 22:33:06 83° WNW 22:36:30 10° NNE
ARGOS 3.2 22:28:50 10° SSE 22:34:12 85° ENE 22:39:37 10° NNW
YAOGAN 6 3.0 22:31:34 10° S 22:35:03 60° W 22:38:35 10° NNW
Cosmos 1408 3.1 22:34:05 10° SSW 22:37:42 61° WNW 22:41:20 10° N
Terra 2.3 22:35:40 10° SE 22:40:09 47° ENE 22:44:43 10° N
Cosmos 1782 Rocket 3.8 22:36:07 10° SSW 22:40:36 78° WNW 22:45:07 10° N
Cosmos 1238 Rocket 4.3 22:37:49 10° NNW 22:40:38 28° W 22:43:45 10° SSW
AVUM R/B 3.5 22:40:06 10° NW 22:43:37 75° WSW 22:46:42 13° SSE
SPOT 1/Viking Rocket 3.8 22:38:40 10° S 22:43:53 74° WSW 22:49:08 10° NNW
Cosmos 1975 Rocket 4.3 22:45:03 10° NNW 22:49:05 38° W 22:53:06 10° SSW
Cosmos 1825 3.3 22:45:34 10° SSW 22:49:15 47° WNW 22:53:00 10° N
Okean 1 3.8 22:47:01 10° N 22:51:01 49° ENE 22:54:20 14° SSE
SPOT 5 4.2 22:46:14 10° SSW 22:51:17 42° W 22:56:23 10° NNW
Cosmos 2218 Rocket 4.1 22:47:11 10° S 22:53:32 72° E 22:59:56 10° NNE
Cosmos 1833 Rocket 2.9 22:48:19 10° NW 22:53:54 67° WSW 22:59:10 12° SSE
Spot 4 4.3 22:50:39 13° SE 22:54:50 49° ENE 22:59:31 10° N
Cosmos 2084 3.1 22:51:52 10° SW 22:55:42 88° SE 22:59:35 10° NE
CARTOSAT-1 3.7 22:52:52 13° SSE 22:56:36 63° ENE 23:00:54 10° N
DELTA 2 DEB (DPAF) 4.2 22:56:30 12° SSE 23:00:37 88° E 23:05:08 10° NNW
Cosmos 1727 Rocket 4.0 22:54:47 10° N 23:01:00 90° NW 23:07:08 10° S
Cosmos 1536 Rocket 3.7 22:57:34 10° NNW 23:02:04 79° W 23:06:20 11° S
Meteor 1-25 Rocket 4.5 22:57:57 10° S 23:03:39 57° E 23:09:20 10° NNE
Cosmos 2278 Rocket 2.5 22:58:12 10° SW 23:03:52 75° WNW 23:09:35 10° NNE
Cosmos 1844 Rocket 3.9 22:58:47 10° WSW 23:04:12 46° NW 23:09:38 10° NNE
Lacrosse 5 3.5 23:04:09 14° SE 23:04:32 14° ESE 23:07:05 10° E
SAR-Lupe-2 4.1 23:03:06 16° SE 23:05:38 45° ENE 23:09:05 10° N
Cosmos 1959 Rocket 4.4 23:00:26 10° S 23:06:33 86° E 23:12:42 10° NNE
Cosmos 1812 2.7 23:07:35 10° N 23:11:30 89° W 23:14:33 16° S
ASTEX 1 3.9 23:09:26 10° NNE 23:14:11 43° E 23:17:44 17° SSE
USA 229 DEB 4.4 23:08:17 10° NW 23:14:58 46° WSW 23:20:58 13° S
USA 229 4.4 23:08:22 10° NW 23:15:05 46° WSW 23:21:04 13° S
Cosmos 2084 Rocket 3.7 23:12:55 10° NW 23:16:43 55° NE 23:19:58 14° ESE
Cosmos 2082 Rocket 3.2 23:12:13 10° NW 23:17:29 39° WSW 23:22:40 10° S
Cosmos 1503 Rocket 4.4 23:17:43 10° NNW 23:22:53 56° ENE 23:26:48 17° SE
DMSP B5D2-2 4.2 23:19:31 10° NNE 23:24:40 55° E 23:28:54 15° S
Meteor 2-4 Rocket 4.3 23:21:05 10° N 23:26:17 45° ENE 23:30:11 18° SE
Cosmos 1331 Rocket 4.2 23:24:05 13° S 23:28:32 51° ESE 23:33:31 10° NE
CZ-4B R/B 3.9 23:31:48 10° ENE 23:32:47 11° ENE 23:33:46 10° NE
Meteor 1-13 Rocket 4.4 23:26:58 10° NNW 23:32:57 84° ENE 23:37:28 18° SSE
NOSS 3-1 (A) 4.0 23:26:11 10° NW 23:33:29 85° SW 23:40:01 17° SE
IGS 5A 3.7 23:30:57 18° S 23:34:01 68° WSW 23:38:11 10° NNW
Cosmos 1315 Rocket 4.5 23:34:55 17° ESE 23:36:10 19° E 23:38:59 10° NE
Cosmos 1110 Rocket 4.0 23:31:05 10° SSW 23:36:15 65° ESE 23:41:25 10° NNE
Cosmos 1025 Rocket 3.4 23:31:57 10° N 23:36:18 55° ENE 23:38:57 22° SE
CZ-4 R/B 4.0 23:31:46 10° NNE 23:36:28 71° WNW 23:41:04 10° SSW
Cosmos 2151 Rocket 4.2 23:32:03 10° SSW 23:36:31 58° WNW 23:41:02 10° N
Lacrosse 5 rocket 2.7 23:38:52 18° ESE 23:38:52 18° ESE 23:40:43 10° E
Okean 2 4.5 23:35:29 10° N 23:39:19 33° ENE 23:41:36 19° ESE
Cosmos 2297 3.9 23:34:36 10° SW 23:40:20 75° NW 23:46:07 10° NNE
Cosmos 1821 Rocket 4.4 23:36:41 19° SSE 23:41:00 48° E 23:46:55 10° NNE
Cosmos 1346 Rocket 4.4 23:47:09 10° N 23:50:21 23° ENE 23:52:25 16° ESE
Cosmos 1300 Rocket 3.6 23:47:41 17° S 23:51:07 87° W 23:55:37 10° N
Cosmos 1934 Rocket 4.3 23:47:59 21° SSE 23:51:49 48° E 23:57:36 10° NNE
Cosmos 2123 Rocket 4.2 23:45:35 10° N 23:51:50 62° ENE 23:56:01 21° SSE
Meteor 1-11 Rocket 3.9 23:49:24 20° S 23:53:25 59° E 23:59:03 10° NNE
SL-8 R/B 4.0 23:49:43 10° W 23:54:19 45° S 23:57:06 22° SE
BREEZE-M TANK 3.7 23:46:47 10° W 23:54:41 32° SSW 23:56:11 25° SSE
ALOS 2 3.8 23:52:11 18° ESE 23:54:48 33° ENE 23:58:45 10° N
